{"data":{"norad_id":48023,"intl_designator":"2021-024AY","name":"STARLINK-2292","alt_names":[],"object_type":"PAYLOAD","status":"ACTIVE","operator":null,"country":"US","launch_date":"2021-03-24","launch_site_code":"AFETR","launch_vehicle":null,"mission":null,"orbit_class":"UNKNOWN","rcs_meters":null,"size_class":null,"mass_kg":null,"dimensions":null,"purposes":["comms"],"wikipedia_slug":null,"has_3d_model":false,"image_url":null,"decayed_at":null,"tle_current":{"epoch":"2026-05-24T22:59:51.777024Z","epoch_age_seconds":85632,"freshness":"FRESH","line1":"1 48023U 21024AY  26144.95823816  .00049934  00000+0  11943-2 0  9993","line2":"2 48023  53.1200 334.3358 0002170 204.6478 155.4423 15.41005948286344","mean_motion":15.41005948,"eccentricity":0.000217,"inclination_deg":53.12,"raan_deg":334.3358,"arg_perigee_deg":204.6478,"mean_anomaly_deg":155.4423,"bstar":0.0011943,"rev_number":28634,"period_min":93.445453722545,"perigee_km":441.65892691383,"apogee_km":444.61936076026,"semimajor_km":6821.276143837,"source":"CELESTRAK","updated_at":"2026-05-25T13:38:16.640393Z"}}}